Temp
-16 -16 -16 -16 -16 -16 -16 -16 -16 -16 -16 -15 -15 -15 -15 -15 -15 -15 -15 -15 -16 -15 -15 -15 -15 -15 -15 -16 -16 -16 -16 -16 -16 -16 -15 -15 -15 -15 -15 -15 -15 -15
-16 -16 -16 -16 -16 -16 -16 -16 -16 -16 -16 -16 -15 -15 -15 -16 -16 -16 -16 -16 -16 -16 -16 -16 -16 -16 -16 -16 -16 -16 -16 -16 -16 -16 -16 -16 -16 -16 -16 -16 -16 -16
-16 -16 -16 -16 -16 -16 -16 -16 -16 -16 -16 -16 -16 -16 -16 -16 -16 -16 -16 -16 -16 -16 -16 -16 -16 -16 -16 -16 -16 -16 -16 -16 -16 -16 -16 -16 -16 -16 -16 -16 -16 -16
-16 -16 -16 -16 -16 -16 -16 -16 -15 -16 -16 -16 -16 -16 -16 -16 -16 -16 -16 -17 -16 -16 -16 -16 -16 -16 -16 -16 -16 -16 -16 -16 -16 -16 -16 -16 -16 -16 -16 -16 -16 -16
-16 -16 -16 -16 -16 -16 -16 -16 -15 -16 -16 -16 -16 -16 -16 -16 -16 -16 -16 -17 -16 -16 -16 -16 -16 -17 -17 -17 -17 -17 -17 -17 -17 -16 -16 -16 -16 -16 -16 -17 -17 -17
-16 -16 -16 -16 -16 -16 -16 -16 -16 -16 -16 -16 -16 -16 -16 -16 -16 -16 -17 -17 -17 -17 -16 -16 -17 -17 -17 -17 -17 -17 -17 -17 -17 -17 -17 -17 -17 -17 -17 -17 -17 -17
-17 -17 -17 -16 -16 -16 -16 -16 -16 -16 -16 -16 -16 -16 -16 -16 -17 -17 -17 -17 -17 -17 -17 -17 -17 -17 -17 -17 -17 -17 -17 -17 -17 -17 -17 -17 -17 -17 -17 -17 -17 -17
-17 -17 -17 -17 -17 -17 -17 -17 -17 -17 -17 -17 -17 -17 -17 -17 -17 -17 -17 -17 -17 -17 -17 -17 -17 -17 -17 -17 -17 -17 -17 -17 -17 -17 -17 -17 -17 -17 -17 -17 -17 -17
-17 -17 -17 -17 -17 -17 -17 -17 -17 -17 -17 -17 -17 -17 -17 -17 -17 -17 -17 -17 -17 -17 -17 -17 -17 -17 -17 -17 -17 -17 -17 -17 -17 -17 -17 -17 -17 -17 -17 -17 -17 -17
-17 -18 -18 -18 -18 -17 -17 -17 -17 -17 -17 -17 -17 -17 -17 -17 -17 -17 -17 -17 -17 -17 -17 -17 -17 -17 -17 -17 -17 -17 -17 -17 -17 -17 -17 -17 -17 -17 -17 -17 -17 -17
-18 -18 -18 -18 -17 -17 -18 -18 -17 -17 -17 -17 -17 -17 -17 -17 -17 -17 -17 -17 -17 -17 -17 -17 -17 -17 -17 -17 -17 -17 -17 -17 -17 -17 -17 -17 -17 -17 -17 -17 -17 -17
-18 -18 -18 -18 -17 -17 -18 -18 -18 -18 -18 -17 -17 -17 -17 -18 -17 -17 -17 -17 -17 -17 -17 -17 -17 -17 -17 -17 -17 -17 -17 -17 -17 -17 -17 -17 -17 -17 -17 -17 -17 -17
-18 -18 -18 -18 -18 -18 -18 -18 -18 -18 -18 -18 -18 -18 -18 -18 -18 -18 -17 -17 -18 -18 -17 -17 -17 -17 -17 -17 -17 -17 -17 -17 -17 -17 -17 -17 -17 -17 -17 -17 -17 -17
-18 -18 -18 -18 -18 -18 -18 -18 -18 -18 -18 -18 -18 -18 -18 -18 -18 -17 -17 -17 -18 -18 -18 -17 -17 -17 -17 -18 -18 -18 -18 -18 -18 -18 -18 -18 -18 -18 -18 -18 -18 -18
-19 -18 -18 -18 -18 -18 -18 -18 -18 -18 -18 -18 -18 -18 -18 -18 -18 -18 -18 -18 -17 -17 -17 -17 -17 -17 -18 -18 -18 -18 -18 -18 -18 -18 -18 -18 -18 -18 -18 -18 -18 -18
-19 -19 -18 -18 -18 -18 -18 -18 -18 -18 -18 -18 -18 -18 -18 -18 -18 -18 -18 -18 -18 -17 -17 -17 -17 -17 -18 -18 -18 -18 -18 -18 -18 -18 -18 -18 -18 -18 -18 -18 -18 -18
-19 -18 -18 -18 -18 -18 -18 -18 -18 -18 -18 -18 -18 -18 -18 -18 -18 -18 -18 -18 -18 -18 -18 -17 -17 -18 -18 -18 -18 -18 -18 -18 -18 -18 -18 -18 -18 -18 -18 -18 -18 -18
-19 -19 -18 -18 -18 -18 -18 -18 -18 -18 -18 -18 -18 -18 -18 -18 -18 -18 -18 -18 -18 -18 -18 -18 -18 -18 -18 -18 -18 -18 -18 -18 -18 -18 -18 -18 -18 -18 -18 -18 -18 -18
-19 -19 -19 -19 -19 -18 -18 -18 -19 -19 -18 -18 -18 -18 -18 -18 -18 -19 -19 -19 -19 -18 -18 -18 -18 -18 -18 -18 -18 -18 -18 -18 -19 -19 -19 -19 -19 -19 -19 -18 -18 -19
-19 -19 -19 -19 -19 -19 -19 -19 -19 -19 -19 -19 -19 -19 -18 -18 -19 -19 -19 -19 -19 -19 -19 -19 -18 -18 -18 -18 -18 -19 -19 -19 -19 -19 -19 -19 -19 -19 -19 -19 -19 -19
-19 -19 -19 -19 -19 -19 -19 -19 -19 -19 -19 -19 -19 -19 -19 -19 -19 -19 -19 -19 -20 -19 -19 -19 -19 -19 -19 -19 -19 -19 -19 -19 -19 -20 -20 -20 -20 -20 -20 -20 -20 -20
-20 -20 -20 -20 -20 -19 -19 -19 -20 -20 -20 -20 -20 -20 -20 -20 -20 -20 -20 -20 -20 -20 -20 -20 -20 -20 -19 -19 -19 -20 -20 -20 -20 -20 -20 -20 -20 -20 -20 -20 -20 -20
-20 -20 -20 -20 -20 -20 -20 -20 -20 -20 -20 -20 -20 -20 -20 -20 -20 -20 -20 -20 -20 -20 -20 -20 -20 -20 -20 -20 -20 -20 -20 -20 -20 -20 -20 -20 -20 -20 -20 -21 -21 -21
-21 -21 -21 -21 -21 -21 -20 -20 -20 -21 -21 -21 -21 -21 -21 -21 -21 -21 -21 -20 -20 -20 -20 -20 -20 -20 -20 -20 -20 -20 -20 -20 -20 -20 -20 -20 -21 -21 -21 -21 -21 -21
-21 -21 -21 -21 -21 -21 -21 -21 -21 -21 -21 -21 -21 -21 -21 -21 -21 -21 -21 -21 -21 -21 -21 -21 -21 -21 -20 -20 -20 -20 -20 -20 -20 -20 -20 -20 -21 -21 -21 -21 -21 -21
-22 -22 -22 -22 -22 -21 -21 -21 -21 -21 -21 -21 -21 -21 -21 -21 -21 -21 -21 -21 -21 -21 -21 -21 -21 -21 -21 -20 -20 -20 -20 -20 -21 -21 -21 -21 -21 -21 -21 -21 -21 -21
Height
5764 5764 5764 5764 5764 5765 5765 5765 5766 5766 5766 5767 5767 5768 5768 5768 5768 5769 5769 5769 5769 5769 5769 5769 5769 5769 5769 5768 5768 5768 5768 5769 5769 5769 5769 5770 5770 5770 5770 5771 5771 5771
5761 5762 5762 5762 5762 5763 5763 5763 5764 5764 5764 5764 5764 5765 5766 5767 5767 5767 5767 5767 5767 5767 5767 5767 5767 5767 5767 5767 5766 5766 5766 5766 5767 5767 5767 5768 5768 5768 5769 5769 5769 5769
5759 5759 5759 5760 5760 5760 5761 5761 5761 5762 5762 5761 5761 5762 5764 5765 5765 5765 5765 5765 5765 5764 5764 5764 5764 5764 5764 5764 5765 5765 5764 5764 5764 5765 5765 5765 5766 5766 5766 5767 5767 5767
5756 5756 5757 5757 5758 5758 5759 5759 5759 5760 5760 5759 5759 5760 5761 5762 5763 5763 5763 5763 5763 5763 5763 5763 5763 5763 5763 5763 5763 5763 5763 5763 5763 5763 5763 5763 5763 5764 5764 5764 5765 5765
5753 5754 5754 5755 5755 5756 5757 5757 5757 5757 5758 5758 5758 5758 5759 5760 5760 5761 5761 5761 5761 5761 5761 5761 5761 5761 5761 5761 5761 5761 5761 5761 5761 5761 5761 5761 5762 5762 5762 5762 5762 5762
5750 5751 5751 5752 5753 5754 5755 5755 5755 5755 5756 5756 5756 5756 5757 5757 5758 5758 5758 5758 5759 5759 5759 5759 5759 5759 5759 5759 5759 5759 5759 5759 5759 5759 5759 5759 5760 5760 5760 5761 5761 5760
5747 5748 5748 5749 5750 5751 5752 5753 5753 5753 5753 5754 5754 5754 5754 5755 5756 5756 5756 5756 5757 5757 5757 5757 5757 5757 5757 5757 5757 5757 5757 5757 5757 5757 5758 5758 5758 5758 5759 5759 5759 5759
5744 5745 5746 5747 5748 5749 5750 5750 5750 5751 5751 5751 5752 5752 5752 5753 5753 5754 5754 5754 5754 5755 5755 5755 5755 5755 5755 5755 5755 5755 5755 5755 5756 5756 5756 5756 5756 5756 5756 5756 5756 5756
5742 5742 5743 5744 5745 5746 5747 5747 5748 5748 5748 5749 5749 5749 5750 5750 5751 5751 5751 5751 5752 5753 5753 5753 5753 5754 5754 5754 5753 5753 5754 5754 5754 5754 5754 5754 5754 5754 5754 5754 5754 5754
5739 5740 5741 5742 5742 5743 5743 5744 5745 5745 5746 5746 5747 5747 5747 5747 5748 5748 5748 5748 5749 5750 5750 5751 5751 5751 5752 5752 5752 5752 5752 5752 5752 5752 5751 5752 5752 5752 5752 5751 5751 5751
5737 5737 5738 5738 5739 5739 5740 5741 5742 5742 5743 5744 5744 5744 5744 5745 5745 5745 5745 5745 5746 5747 5747 5748 5749 5749 5749 5749 5749 5749 5749 5749 5749 5749 5749 5749 5748 5749 5749 5749 5749 5748
5734 5735 5735 5736 5736 5737 5737 5738 5739 5740 5741 5741 5741 5742 5742 5742 5742 5742 5742 5742 5742 5743 5744 5745 5745 5746 5746 5747 5747 5747 5747 5746 5746 5746 5746 5746 5746 5746 5746 5746 5746 5746
5732 5732 5733 5733 5734 5735 5735 5736 5737 5738 5738 5738 5739 5739 5739 5739 5739 5740 5740 5739 5739 5740 5740 5741 5742 5743 5743 5743 5744 5743 5743 5743 5743 5743 5743 5743 5743 5743 5743 5743 5743 5743
5730 5730 5731 5731 5732 5734 5733 5733 5734 5735 5735 5735 5735 5736 5736 5736 5737 5737 5737 5737 5737 5737 5737 5738 5739 5739 5740 5740 5740 5740 5740 5740 5740 5740 5740 5740 5739 5739 5739 5739 5739 5739
5727 5728 5728 5729 5730 5731 5730 5730 5731 5732 5732 5732 5732 5732 5733 5733 5733 5734 5734 5734 5734 5734 5734 5734 5735 5735 5736 5736 5736 5736 5736 5736 5736 5736 5736 5736 5735 5736 5736 5735 5735 5736
5725 5726 5726 5726 5727 5727 5726 5727 5727 5728 5729 5729 5729 5729 5729 5729 5729 5730 5731 5730 5730 5730 5730 5730 5731 5731 5731 5732 5732 5732 5732 5732 5732 5732 5732 5731 5731 5731 5731 5731 5731 5731
5721 5722 5723 5723 5723 5723 5723 5723 5724 5724 5725 5725 5725 5725 5725 5725 5725 5725 5726 5726 5726 5726 5726 5726 5726 5726 5727 5727 5728 5728 5728 5727 5727 5727 5727 5727 5727 5727 5727 5727 5727 5727
5716 5716 5717 5718 5719 5719 5719 5719 5719 5719 5720 5720 5720 5720 5720 5720 5720 5721 5721 5720 5720 5721 5721 5721 5721 5722 5722 5722 5723 5723 5723 5723 5722 5722 5722 5722 5722 5722 5722 5722 5722 5722
5710 5710 5711 5712 5713 5713 5713 5713 5712 5713 5714 5715 5715 5715 5714 5714 5714 5715 5715 5715 5715 5715 5716 5716 5716 5716 5717 5717 5717 5717 5717 5717 5717 5717 5717 5717 5718 5718 5717 5717 5717 5717
5703 5703 5704 5705 5706 5706 5707 5707 5707 5707 5708 5709 5710 5709 5709 5709 5708 5708 5708 5708 5709 5709 5710 5710 5710 5711 5711 5711 5711 5711 5712 5712 5712 5712 5712 5712 5712 5712 5712 5712 5711 5711
5696 5697 5697 5698 5699 5699 5699 5700 5700 5701 5702 5702 5703 5703 5703 5703 5703 5702 5702 5702 5702 5703 5704 5704 5705 5705 5705 5705 5706 5706 5707 5707 5707 5707 5707 5707 5707 5707 5707 5706 5706 5706
5691 5691 5691 5692 5692 5692 5692 5693 5693 5694 5695 5695 5696 5696 5696 5697 5697 5697 5697 5697 5697 5697 5697 5698 5699 5699 5700 5700 5701 5701 5701 5701 5701 5701 5701 5701 5701 5702 5701 5701 5701 5701
5685 5686 5686 5686 5686 5687 5687 5687 5687 5687 5688 5689 5689 5689 5690 5690 5690 5690 5691 5690 5690 5691 5691 5692 5693 5693 5694 5695 5695 5696 5695 5695 5695 5696 5696 5696 5696 5696 5696 5696 5696 5696
5679 5680 5680 5681 5681 5681 5681 5681 5681 5682 5682 5683 5683 5683 5683 5683 5683 5684 5684 5684 5684 5685 5685 5686 5687 5688 5688 5689 5690 5690 5690 5690 5690 5690 5690 5690 5690 5690 5690 5690 5690 5690
5673 5674 5674 5675 5675 5675 5676 5676 5676 5676 5677 5677 5677 5677 5677 5677 5677 5677 5678 5678 5678 5678 5679 5680 5681 5681 5682 5683 5684 5684 5684 5684 5684 5685 5685 5684 5684 5684 5684 5684 5684 5683
5666 5667 5667 5668 5669 5669 5670 5670 5670 5670 5671 5670 5670 5670 5670 5671 5671 5672 5672 5672 5672 5673 5673 5673 5674 5675 5676 5677 5677 5678 5678 5678 5678 5679 5679 5679 5678 5678 5678 5678 5677 5677
Wind_Speed
18 17 18 19 20 20 20 21 21 21 20 18 17 17 16 16 16 16 16 17 17 18 18 19 19 19 18 18 17 17 16 16 16 16 17 17 18 18 18 18 18 18
21 18 16 16 17 17 18 19 20 20 19 18 19 20 19 18 17 18 18 18 17 17 17 18 18 19 19 19 18 17 16 15 15 15 15 16 16 17 18 18 18 17
20 19 18 17 17 17 18 18 19 19 19 20 22 21 18 16 17 19 19 18 18 17 17 17 18 18 18 18 18 17 17 16 15 15 15 15 16 16 17 17 17 16
18 18 18 18 17 17 17 18 18 19 19 21 22 19 15 13 16 18 19 19 18 18 18 17 17 17 16 17 17 17 17 16 16 16 17 17 17 17 17 16 16 16
18 18 17 17 16 16 17 17 18 19 20 21 21 19 15 13 15 17 18 18 19 18 18 17 17 16 16 16 16 16 16 16 16 16 17 18 19 19 18 17 16 15
19 19 19 18 17 17 17 18 18 19 19 20 21 21 20 17 16 16 17 18 18 18 17 17 17 17 16 16 16 16 15 15 15 15 16 17 18 19 19 19 18 16
20 20 20 20 19 18 17 18 19 19 20 20 21 21 21 19 18 17 16 17 18 17 17 18 18 18 17 16 15 14 14 14 14 13 14 15 16 17 17 18 18 17
20 20 20 19 18 17 17 18 19 19 20 20 20 20 20 20 18 17 17 17 18 17 17 18 19 18 17 15 14 13 14 14 13 13 14 15 16 16 17 18 18 18
19 19 18 17 17 17 17 17 18 19 19 19 20 20 20 21 20 18 17 18 18 18 18 18 19 18 17 16 16 16 16 17 17 17 18 18 18 18 18 18 18 18
19 19 18 18 18 18 18 18 19 20 20 21 22 22 22 23 21 19 18 18 18 18 19 20 20 19 19 20 20 19 19 19 19 20 20 20 20 21 21 21 21 21
20 20 20 20 21 21 20 20 20 21 21 21 21 21 21 21 20 19 18 18 19 19 20 22 22 22 22 22 22 22 21 20 20 21 21 21 22 22 23 23 24 25
22 22 23 24 24 23 23 23 22 22 21 20 19 19 19 19 19 18 18 18 19 19 21 23 24 24 24 24 24 23 23 22 22 23 22 21 21 22 23 23 24 24
22 24 24 24 23 22 23 23 23 22 21 20 19 19 19 19 19 20 21 20 20 20 22 23 25 25 25 26 26 25 25 25 24 24 23 23 22 23 23 24 24 24
23 24 24 22 21 21 22 23 22 22 22 21 21 21 21 21 21 21 22 22 21 21 22 23 25 26 27 27 27 27 27 27 25 24 24 24 24 24 25 26 26 26
23 25 25 25 24 24 25 25 24 24 24 24 25 25 25 24 23 23 23 23 23 23 24 25 26 28 29 30 30 29 29 28 28 27 27 26 27 27 28 29 30 30
23 24 26 27 28 28 28 27 27 27 27 28 29 29 29 27 26 26 27 27 28 27 28 28 29 29 30 30 31 31 31 31 31 31 31 31 32 32 32 33 34 34
27 28 29 30 32 33 32 31 32 32 32 32 33 33 32 31 30 30 31 32 32 32 31 31 31 31 31 31 32 33 34 35 35 35 36 37 37 37 36 37 37 37
33 33 34 34 35 36 36 37 37 37 37 37 38 37 37 37 36 35 35 35 36 35 35 35 35 35 35 36 36 37 38 39 40 40 41 41 40 40 39 39 39 39
39 39 39 39 39 39 40 40 40 40 40 41 41 41 41 41 40 40 39 39 39 38 39 39 39 40 41 41 42 42 43 43 43 43 43 42 41 41 41 41 41 41
42 43 42 42 42 42 42 43 43 42 42 43 43 43 43 42 39 39 41 42 42 41 41 42 43 43 44 45 45 45 44 44 44 43 42 42 42 43 43 43 43 43
41 41 42 42 42 42 42 43 45 45 45 46 46 46 46 44 42 43 45 45 45 45 44 44 45 45 45 46 45 45 44 43 43 43 43 44 44 44 44 44 43 43
37 38 39 39 40 41 42 43 44 45 45 46 46 46 47 47 47 49 50 50 49 48 46 46 45 45 46 46 45 44 44 44 44 44 45 45 45 46 46 45 45 45
38 39 40 41 41 42 42 43 43 43 43 44 44 45 46 47 49 49 50 50 49 48 48 47 46 46 46 46 45 45 46 46 46 45 45 45 46 46 47 47 47 48
39 39 40 41 42 42 41 40 40 39 39 40 41 42 44 45 46 47 48 48 48 49 49 49 48 48 46 46 46 46 45 45 44 43 43 44 45 46 46 46 45 45
41 41 41 40 41 42 43 41 39 37 37 37 37 38 40 42 43 44 45 45 46 47 47 47 46 46 45 45 45 43 42 41 41 41 42 44 45 45 44 44 43 43
48 47 45 44 44 44 45 44 42 39 36 35 36 36 38 41 42 42 42 43 43 43 43 43 43 42 42 42 41 41 40 41 42 44 45 45 45 46 46 46 46 46
Wind_Direction
243 242 242 242 244 246 249 253 256 260 262 263 263 259 260 262 259 259 263 265 266 267 265 262 261 261 263 265 266 268 270 273 274 275 277 278 279 279 280 281 281 280
246 246 240 238 241 244 247 251 255 259 263 262 257 257 262 263 257 256 261 263 265 265 262 259 256 255 256 257 259 260 261 264 267 271 274 276 277 278 279 279 279 279
244 239 236 238 242 244 244 246 250 257 263 265 266 270 274 267 254 253 257 259 261 262 261 258 255 253 253 253 254 255 255 257 259 263 266 269 271 273 274 275 276 277
232 233 236 238 238 237 239 242 246 251 256 262 268 276 280 266 249 250 255 258 260 261 262 261 258 255 253 253 254 254 256 258 260 263 264 266 266 267 268 269 271 272
227 228 228 228 228 232 238 244 248 250 253 258 263 267 267 259 250 250 254 256 258 262 264 263 258 255 252 252 254 256 258 262 265 267 268 269 269 268 267 266 267 268
220 219 219 223 229 234 240 246 250 253 255 258 261 262 260 256 251 249 250 251 253 259 263 262 257 253 251 250 252 256 259 262 265 268 269 271 272 273 273 271 269 267
216 217 220 224 229 232 237 244 249 253 255 257 259 262 263 261 256 252 250 249 250 255 261 262 258 253 251 250 251 254 256 258 259 264 268 271 273 274 275 274 272 269
216 217 220 223 227 232 237 243 247 251 254 256 258 262 265 266 263 260 256 251 248 251 258 260 257 252 248 246 248 251 253 254 256 262 268 271 273 273 273 273 273 271
218 220 223 227 233 238 241 243 245 248 252 255 258 260 263 265 265 263 260 255 249 248 253 255 251 247 245 247 252 255 256 256 258 261 265 267 269 269 269 270 271 272
220 223 227 231 236 240 242 243 245 247 251 254 255 256 259 261 263 262 260 257 252 248 249 250 247 245 248 255 261 262 260 260 262 264 265 266 265 265 265 266 268 270
225 227 231 234 237 239 240 241 243 246 249 251 251 251 254 257 259 260 260 260 258 253 249 249 248 248 252 259 262 261 259 260 263 265 266 266 265 264 265 265 267 269
227 230 232 234 237 239 240 241 241 243 245 247 248 247 248 251 254 257 259 261 259 254 250 250 251 251 256 262 262 259 257 258 259 261 263 264 265 266 266 266 268 270
228 229 231 236 238 239 240 242 242 244 246 248 248 246 247 249 252 253 255 256 256 254 252 252 254 256 260 263 261 258 256 257 258 260 262 263 264 265 266 266 266 267
229 227 230 237 241 241 242 243 243 245 249 251 251 250 251 253 256 255 252 252 252 253 255 257 259 261 263 262 261 258 257 257 257 257 258 260 262 264 264 264 263 262
234 233 236 242 246 247 247 247 248 249 252 254 255 256 256 256 257 255 253 254 256 258 259 260 261 262 262 261 261 260 257 255 254 254 256 259 264 266 266 264 263 261
246 243 243 246 252 256 256 256 257 257 257 257 257 259 259 256 254 255 256 259 261 262 262 262 262 261 259 259 260 260 258 256 255 255 257 260 265 268 267 265 264 263
254 251 249 250 254 258 260 262 263 262 262 261 260 261 260 257 257 259 260 261 262 262 261 261 260 259 258 257 257 257 257 257 257 257 259 262 266 267 267 266 265 264
259 257 256 255 256 258 260 262 263 262 262 262 263 264 263 261 263 264 263 261 260 260 259 259 258 257 257 256 257 257 257 258 259 260 261 264 265 266 266 265 264 264
260 260 259 258 259 259 260 261 261 261 260 260 262 264 264 264 266 266 264 260 259 258 257 257 256 256 256 256 257 258 259 260 261 262 264 266 266 266 265 265 264 265
259 259 259 259 259 258 258 258 259 260 260 259 259 259 260 261 262 262 261 260 258 257 256 255 255 255 255 256 257 258 259 261 263 264 266 266 267 267 266 266 266 266
258 259 259 259 258 257 257 257 257 258 259 259 258 258 258 257 256 255 257 258 259 259 257 256 255 255 255 256 257 258 260 261 263 264 265 266 266 266 266 267 268 269
257 258 260 260 259 259 258 258 258 257 257 257 257 258 258 257 256 255 257 258 260 260 259 258 257 256 257 258 258 259 260 262 263 264 265 266 266 266 266 266 268 270
259 260 261 261 261 261 261 260 259 258 258 257 257 257 256 256 256 257 258 259 259 260 259 259 259 259 259 259 259 261 262 264 265 266 267 268 268 268 268 269 269 270
263 263 262 261 261 261 261 259 257 256 256 256 255 255 255 255 255 256 257 258 259 259 260 260 261 261 260 260 261 262 264 265 266 267 269 270 271 271 271 272 272 272
266 265 265 264 263 261 258 256 253 252 252 253 254 255 255 255 255 255 256 257 258 259 260 260 261 260 260 261 261 262 262 263 266 269 272 273 273 272 272 273 274 275
266 266 266 265 263 260 256 252 249 247 248 252 256 257 257 256 256 256 256 256 257 257 258 258 258 258 258 259 260 259 261 264 269 272 273 273 273 273 274 274 275 277